{"data":{"norad_id":59036,"epoch":"2026-05-25T05:06:39.414816Z","epoch_age_seconds":60194,"freshness":"FRESH","line1":"1 59036U 24038P   26145.21295619 -.00000162  00000+0  36315-5 0  9995","line2":"2 59036  43.0005 217.0544 0001891 273.8539  86.2096 15.27573293127641","mean_motion":15.27573293,"eccentricity":0.0001891,"inclination_deg":43.0005,"raan_deg":217.0544,"arg_perigee_deg":273.8539,"mean_anomaly_deg":86.2096,"bstar":3.6315e-6,"rev_number":12764,"period_min":94.267162603503,"perigee_km":481.77172519546,"apogee_km":484.36663337247,"semimajor_km":6861.206179284,"source":"CELESTRAK","updated_at":"2026-05-25T13:38:18.824845Z"}}